Vancouver, WA

2:02 AM PDT on March 23, 2017 (GMT -0700)
Pearson

Weather History for KVUO - March, 2014

Change the Weather History Date:

Sunday, March 30, 2014

  Actual Average Record
Temperature  
Mean Temperature 47 °F 50 °F  
Max Temperature 55 °F 59 °F 78 °F (2013)
Min Temperature 39 °F 41 °F 24 °F (1968)
Degree Days  
Heating Degree Days 18    
Month to date heating degree days 502  
Since 1 July heating degree days 3965  
Cooling Degree Days 0    
Month to date cooling degree days 0  
Year to date cooling degree days 0  
Moisture  
Dew Point 39 °F    
Average Humidity 71    
Maximum Humidity 92    
Minimum Humidity 50    
Precipitation  
Precipitation 0.04 in 0.11 in 1.13 in (1983)
Month to date precipitation 6.22 3.47  
Year to date precipitation 13.11 13.00  
Sea Level Pressure  
Sea Level Pressure 29.98 in    
Wind  
Wind Speed 4 mph (SSE)    
Max Wind Speed 10 mph    
Max Gust Speed 15 mph    
Visibility 10 miles    
Events Rain    
T = Trace of Precipitation, MM = Missing Value Source: NWS Daily Summary

Daily Weather History Graph

Daily Weather History Graph

Search for Another Location

Airport or City:

Trip Planner

Search our weather history database for the weather conditions in past years. The results will help you decide how hot, cold, wet, or windy it might be!

Date:

Astronomy

Mar. 30, 2014 Rise Set
Actual Time 6:54 AM PDT 7:36 PM PDT
Civil Twilight 6:24 AM PDT 8:06 PM PDT
Nautical Twilight 5:49 AM PDT 8:42 PM PDT
Astronomical Twilight 5:12 AM PDT 9:19 PM PDT
Moon 6:43 AM PDT (3/30) 7:57 PM PDT (3/30)
Length of Visible Light 13h 41m
Length of Day
12h 42m
New Moon, 0% of the Moon is Illuminated
Mar 30
New Moon
Apr 7
First Quarter
Apr 15
Full
Apr 22
Last Quarter
Apr 28
New

Hourly Weather History & Observations

Time (PDT) Temp. Windchill Dew Point Humidity Pressure Visibility Wind Dir Wind Speed Gust Speed Precip Events Conditions
12:53 AM 46.9 °F - 42.1 °F 83% 29.92 in 10.0 mi Variable 3.5 mph - 0.00 in   Overcast
1:53 AM 46.9 °F - 41.0 °F 80% 29.93 in 10.0 mi Variable 6.9 mph - N/A   Scattered Clouds
2:53 AM 46.0 °F 43.9 °F 41.0 °F 83% 29.94 in 10.0 mi Variable 4.6 mph - N/A   Overcast
3:07 AM 46.0 °F 44.8 °F 41.0 °F 83% 29.94 in 10.0 mi East 3.5 mph - N/A   Overcast
3:53 AM 46.9 °F - 41.0 °F 80% 29.95 in 10.0 mi East 3.5 mph - N/A   Overcast
4:25 AM 46.0 °F 44.8 °F 41.0 °F 83% 29.95 in 10.0 mi South 3.5 mph - N/A   Mostly Cloudy
4:53 AM 46.0 °F 44.8 °F 39.9 °F 79% 29.96 in 10.0 mi Variable 3.5 mph - N/A   Overcast
5:01 AM 46.0 °F - 41.0 °F 83% 29.96 in 10.0 mi Calm Calm - N/A   Overcast
5:21 AM 45.0 °F 43.5 °F 41.0 °F 86% 29.97 in 7.0 mi South 3.5 mph - 0.02 in Rain Light Rain
5:53 AM 45.0 °F - 39.9 °F 82% 29.97 in 10.0 mi Calm Calm - 0.03 in   Overcast
6:53 AM 39.9 °F - 37.9 °F 93% 29.99 in 10.0 mi Calm Calm - N/A   Clear
7:53 AM 42.1 °F - 39.0 °F 89% 30.01 in 10.0 mi Calm Calm - N/A   Clear
8:53 AM 46.0 °F 43.1 °F 41.0 °F 83% 30.02 in 10.0 mi ESE 5.8 mph - N/A   Clear
9:53 AM 48.0 °F - 39.0 °F 71% 30.02 in 10.0 mi Variable 3.5 mph - N/A   Mostly Cloudy
10:53 AM 50.0 °F - 37.9 °F 63% 30.02 in 10.0 mi SW 4.6 mph - N/A   Overcast
11:53 AM 48.9 °F - 37.9 °F 66% 30.02 in 10.0 mi West 3.5 mph - 0.01 in   Overcast
12:53 PM 51.1 °F - 39.0 °F 63% 30.01 in 10.0 mi Calm Calm - 0.00 in   Scattered Clouds
1:53 PM 52.0 °F - 39.0 °F 61% 30.00 in 10.0 mi Variable 5.8 mph - N/A   Mostly Cloudy
2:53 PM 52.0 °F - 37.9 °F 59% 29.99 in 10.0 mi Calm Calm - N/A   Overcast
3:53 PM 53.1 °F - 37.9 °F 57% 29.99 in 10.0 mi SSE 5.8 mph - N/A   Mostly Cloudy
4:53 PM 53.1 °F - 35.1 °F 50% 29.99 in 10.0 mi SSW 8.1 mph - N/A   Overcast
5:53 PM 52.0 °F - 37.9 °F 59% 29.99 in 10.0 mi WSW 10.4 mph - N/A   Mostly Cloudy
6:53 PM 51.1 °F - 37.0 °F 59% 29.99 in 10.0 mi Calm Calm - N/A   Scattered Clouds
7:53 PM 46.9 °F - 37.0 °F 68% 29.99 in 10.0 mi Calm Calm - N/A   Partly Cloudy
8:53 PM 45.0 °F 43.5 °F 37.0 °F 74% 30.00 in 10.0 mi NE 3.5 mph - N/A   Clear
9:53 PM 43.0 °F - 37.0 °F 80% 30.00 in 10.0 mi Calm Calm - N/A   Partly Cloudy
10:53 PM 42.1 °F - 37.0 °F 82% 29.99 in 10.0 mi Calm Calm - N/A   Scattered Clouds
11:53 PM 44.1 °F 42.5 °F 39.0 °F 82% 29.98 in 10.0 mi SE 3.5 mph - N/A   Clear